SAS534 BIAR-EKVG

Flight info

Callsign SAS534
Flight time N/A
Altitude 41000
Route MAMEP DCT MAGNI
Aircraft A333/H-SDE3GHIJ2J3J5M1RVWXY/LB2D1

Departure

Time 2026-04-27 20:06
Airport Akureyri International Airport (BIAR)

Arrival

Time N/A
Airport Vágar Airport (EKVG)
Time Latitude Longitude Altitude Speed Heading
2026-04-27 19:24 65.65405 -18.07498 21 ft 0 kts 25°
2026-04-27 20:00 65.65408 -18.07494 21 ft 2 kts 26°
2026-04-27 20:01 65.65424 -18.07471 25 ft 4 kts 31°
2026-04-27 20:01 65.65453 -18.07426 25 ft 6 kts 36°
2026-04-27 20:01 65.65463 -18.07402 21 ft 0 kts 45°
2026-04-27 20:03 65.65465 -18.07397 21 ft 1 kts 48°
2026-04-27 20:04 65.65475 -18.07357 25 ft 5 kts 65°
2026-04-27 20:04 65.65487 -18.07233 20 ft 9 kts 64°
2026-04-27 20:04 65.65511 -18.07197 24 ft 3 kts 15°
2026-04-27 20:04 65.65539 -18.07190 22 ft 0 kts
2026-04-27 20:05 65.65583 -18.07188 23 ft 29 kts
2026-04-27 20:05 65.66108 -18.07198 20 ft 118 kts 355°
2026-04-27 20:05 65.67184 -18.07542 184 ft 183 kts 348°
2026-04-27 20:06 65.68536 -18.07329 894 ft 212 kts 26°
2026-04-27 20:06 65.69625 -18.04871 1780 ft 220 kts 65°
2026-04-27 20:06 65.70320 -18.01612 3094 ft 218 kts 69°
2026-04-27 20:06 65.70854 -17.98219 4134 ft 215 kts 89°
2026-04-27 20:07 65.70651 -17.94557 4533 ft 231 kts 118°
2026-04-27 20:07 65.69922 -17.90858 4891 ft 256 kts 124°
2026-04-27 20:07 65.69437 -17.86480 5557 ft 283 kts 104°
2026-04-27 20:07 65.69284 -17.81621 6408 ft 296 kts 101°
2026-04-27 20:08 65.69267 -17.76507 7200 ft 309 kts 96°
2026-04-27 20:08 65.69345 -17.71228 8075 ft 316 kts 95°
2026-04-27 20:08 65.69461 -17.65859 8981 ft 320 kts 95°
2026-04-27 20:08 65.69577 -17.60430 9908 ft 324 kts 95°
2026-04-27 20:09 65.69671 -17.54843 10423 ft 342 kts 96°
2026-04-27 20:09 65.69740 -17.48883 10789 ft 363 kts 96°
2026-04-27 20:09 65.69796 -17.42644 11406 ft 374 kts 96°
2026-04-27 20:09 65.69513 -17.36451 12189 ft 366 kts 113°
2026-04-27 20:10 65.68570 -17.30831 13038 ft 357 kts 126°
2026-04-27 20:10 65.67327 -17.25640 13859 ft 356 kts 131°
2026-04-27 20:10 65.65925 -17.20676 14570 ft 358 kts 135°
2026-04-27 20:10 65.64434 -17.15818 15278 ft 361 kts 136°
2026-04-27 20:11 65.62942 -17.11095 15925 ft 367 kts 136°
2026-04-27 20:11 65.61380 -17.06156 16586 ft 372 kts 135°
2026-04-27 20:11 65.59803 -17.01118 17221 ft 379 kts 135°
2026-04-27 20:11 65.58216 -16.95990 17925 ft 384 kts 134°
2026-04-27 20:12 65.56618 -16.90778 18614 ft 387 kts 134°
2026-04-27 20:12 65.55012 -16.85515 19236 ft 391 kts 134°
2026-04-27 20:12 65.53393 -16.80210 19867 ft 394 kts 134°
2026-04-27 20:12 65.51757 -16.74862 20491 ft 398 kts 135°
2026-04-27 20:13 65.50103 -16.69480 21058 ft 401 kts 135°
2026-04-27 20:13 65.48435 -16.64055 21681 ft 404 kts 135°
2026-04-27 20:13 65.46756 -16.58610 22274 ft 407 kts 135°
2026-04-27 20:13 65.45057 -16.53118 22838 ft 411 kts 135°
2026-04-27 20:14 65.43342 -16.47592 23417 ft 414 kts 135°
2026-04-27 20:14 65.41608 -16.42023 23898 ft 417 kts 135°
2026-04-27 20:14 65.39866 -16.36439 24390 ft 420 kts 136°
2026-04-27 20:14 65.38111 -16.30823 24877 ft 422 kts 136°
2026-04-27 20:15 65.36343 -16.25183 25272 ft 425 kts 135°
2026-04-27 20:15 65.34554 -16.19498 25656 ft 429 kts 135°
2026-04-27 20:15 65.32751 -16.13778 26136 ft 431 kts 135°
2026-04-27 20:15 65.30940 -16.08040 26603 ft 433 kts 135°
2026-04-27 20:16 65.29115 -16.02276 27095 ft 435 kts 135°
2026-04-27 20:16 65.27284 -15.96506 27542 ft 437 kts 135°
2026-04-27 20:16 65.25434 -15.90703 27851 ft 443 kts 135°
2026-04-27 20:16 65.23579 -15.84902 28228 ft 447 kts 135°
2026-04-27 20:17 65.21665 -15.78923 28709 ft 448 kts 135°
2026-04-27 20:17 65.19794 -15.73089 29158 ft 450 kts 135°
2026-04-27 20:17 65.17886 -15.67154 29598 ft 452 kts 135°
2026-04-27 20:17 65.15967 -15.61206 30022 ft 455 kts 135°
2026-04-27 20:18 65.14034 -15.55230 30382 ft 457 kts 136°
2026-04-27 20:18 65.12087 -15.49231 30664 ft 460 kts 136°
2026-04-27 20:18 65.10119 -15.43187 30972 ft 464 kts 136°
2026-04-27 20:18 65.08138 -15.37116 31322 ft 466 kts 136°
2026-04-27 20:19 65.06150 -15.31036 31683 ft 468 kts 136°
2026-04-27 20:19 65.04152 -15.24941 32038 ft 470 kts 136°
2026-04-27 20:19 65.02137 -15.18811 32363 ft 473 kts 136°
2026-04-27 20:19 65.00118 -15.12684 32807 ft 472 kts 136°
2026-04-27 20:20 64.98105 -15.06583 33335 ft 470 kts 136°
2026-04-27 20:20 64.96095 -15.00511 33801 ft 468 kts 137°
2026-04-27 20:20 64.94091 -14.94474 34233 ft 467 kts 137°
2026-04-27 20:20 64.92129 -14.88587 34634 ft 465 kts 137°
2026-04-27 20:21 64.90138 -14.82629 34982 ft 465 kts 136°
2026-04-27 20:21 64.88121 -14.76624 35095 ft 470 kts 136°
2026-04-27 20:21 64.86093 -14.70604 35496 ft 468 kts 137°
2026-04-27 20:21 64.84080 -14.64624 35978 ft 465 kts 137°
2026-04-27 20:22 64.82075 -14.58680 36391 ft 463 kts 137°
2026-04-27 20:22 64.80075 -14.52772 36750 ft 462 kts 137°
2026-04-27 20:22 64.78073 -14.46880 37088 ft 462 kts 137°
2026-04-27 20:22 64.76070 -14.41003 37425 ft 461 kts 137°
2026-04-27 20:23 64.74070 -14.35148 37793 ft 460 kts 137°
2026-04-27 20:23 64.72104 -14.29407 38135 ft 459 kts 137°
2026-04-27 20:23 64.70082 -14.23517 38509 ft 458 kts 137°
2026-04-27 20:23 64.68088 -14.17723 38824 ft 457 kts 137°
2026-04-27 20:24 64.66096 -14.11952 39039 ft 457 kts 137°
2026-04-27 20:24 64.64101 -14.06189 39231 ft 457 kts 137°
2026-04-27 20:24 64.60062 -13.94583 39205 ft 468 kts 135°
2026-04-27 20:25 64.58014 -13.88723 39343 ft 470 kts 135°
2026-04-27 20:25 64.55973 -13.82882 39597 ft 468 kts 135°
2026-04-27 20:25 64.53924 -13.77027 39836 ft 468 kts 135°
2026-04-27 20:25 64.51869 -13.71175 40035 ft 468 kts 135°
2026-04-27 20:26 64.49808 -13.65323 40222 ft 469 kts 135°
2026-04-27 20:26 64.47741 -13.59472 40429 ft 468 kts 135°
2026-04-27 20:26 64.45677 -13.53644 40631 ft 468 kts 135°
2026-04-27 20:26 64.43610 -13.47824 40835 ft 468 kts 135°
2026-04-27 20:27 64.41539 -13.42007 41024 ft 468 kts 135°
2026-04-27 20:27 64.39490 -13.36269 41094 ft 471 kts 135°
2026-04-27 20:27 64.35283 -13.24546 41102 ft 476 kts 134°
2026-04-27 20:28 64.31069 -13.12854 41116 ft 478 kts 134°
2026-04-27 20:28 64.27505 -13.03007 41116 ft 478 kts 134°
2026-04-27 20:29 64.22543 -12.89372 41116 ft 478 kts 134°
2026-04-27 20:29 64.18268 -12.77695 41116 ft 478 kts 134°
2026-04-27 20:30 64.13982 -12.66052 41136 ft 478 kts 135°
2026-04-27 20:30 64.09689 -12.54449 41135 ft 478 kts 135°
2026-04-27 20:31 64.05387 -12.42883 41146 ft 477 kts 135°
2026-04-27 20:31 64.01075 -12.31351 41151 ft 477 kts 135°
2026-04-27 20:32 63.96769 -12.19894 41162 ft 477 kts 135°
2026-04-27 20:32 63.92443 -12.08443 41162 ft 477 kts 135°
2026-04-27 20:33 63.88108 -11.97030 41162 ft 477 kts 135°
2026-04-27 20:33 63.83765 -11.85649 41176 ft 478 kts 135°
2026-04-27 20:34 63.79403 -11.74280 41183 ft 478 kts 135°
2026-04-27 20:34 63.75024 -11.62929 41188 ft 480 kts 135°
2026-04-27 20:35 63.70656 -11.51662 41191 ft 481 kts 135°
2026-04-27 20:35 63.66242 -11.40332 41191 ft 481 kts 135°
2026-04-27 20:36 63.61823 -11.29047 41202 ft 481 kts 135°
2026-04-27 20:36 63.57393 -11.17796 41201 ft 480 kts 135°
2026-04-27 20:37 63.52963 -11.06598 41220 ft 480 kts 135°
2026-04-27 20:37 63.48519 -10.95422 41222 ft 480 kts 135°
2026-04-27 20:38 63.44069 -10.84288 41228 ft 480 kts 135°
2026-04-27 20:38 63.39613 -10.73194 41227 ft 480 kts 135°
2026-04-27 20:39 63.35136 -10.62106 41231 ft 482 kts 135°
2026-04-27 20:39 63.30636 -10.51019 41232 ft 483 kts 135°
2026-04-27 20:40 63.26126 -10.39958 41237 ft 483 kts 135°
2026-04-27 20:40 63.21609 -10.28936 41256 ft 482 kts 135°
2026-04-27 20:41 63.17078 -10.17939 41101 ft 487 kts 135°
2026-04-27 20:41 63.14777 -10.12379 40507 ft 492 kts 135°
2026-04-27 20:41 63.12482 -10.06846 39737 ft 498 kts 135°
2026-04-27 20:42 63.10125 -10.01178 39016 ft 503 kts 136°
2026-04-27 20:42 63.07748 -9.95475 38201 ft 506 kts 135°
2026-04-27 20:42 63.05358 -9.89753 37454 ft 508 kts 135°
2026-04-27 20:42 63.02958 -9.84019 36732 ft 509 kts 135°
2026-04-27 20:43 63.00554 -9.78291 36001 ft 510 kts 135°
2026-04-27 20:43 62.98139 -9.72552 35189 ft 514 kts 135°
2026-04-27 20:43 62.96490 -9.68645 34647 ft 516 kts 135°
2026-04-27 20:43 62.93245 -9.60974 33552 ft 519 kts 135°
2026-04-27 20:44 62.91615 -9.57132 33045 ft 519 kts 135°
2026-04-27 20:44 62.89157 -9.51348 32289 ft 518 kts 135°
2026-04-27 20:44 62.86704 -9.45592 31601 ft 516 kts 135°
2026-04-27 20:44 62.84264 -9.39880 31037 ft 511 kts 135°
2026-04-27 20:45 62.81846 -9.34232 30443 ft 506 kts 135°
2026-04-27 20:45 62.79456 -9.28668 29927 ft 499 kts 135°
2026-04-27 20:45 62.77338 -9.23749 29298 ft 496 kts 135°
2026-04-27 20:45 62.74980 -9.18287 28629 ft 492 kts 135°
2026-04-27 20:46 62.72637 -9.12871 27974 ft 488 kts 135°
2026-04-27 20:46 62.70314 -9.07516 27364 ft 484 kts 135°
2026-04-27 20:46 62.68023 -9.02247 26749 ft 481 kts 135°
2026-04-27 20:46 62.65743 -8.97017 26147 ft 477 kts 135°
2026-04-27 20:47 62.63438 -8.91742 25532 ft 474 kts 135°
2026-04-27 20:47 62.61172 -8.86567 24930 ft 471 kts 135°
2026-04-27 20:47 62.58910 -8.81414 24243 ft 472 kts 135°
2026-04-27 20:47 62.56662 -8.76307 23657 ft 468 kts 135°
2026-04-27 20:48 62.54421 -8.71228 23074 ft 462 kts 135°
2026-04-27 20:48 62.52209 -8.66225 22442 ft 458 kts 135°
2026-04-27 20:48 62.50013 -8.61270 21864 ft 454 kts 135°
2026-04-27 20:48 62.47839 -8.56375 21253 ft 450 kts 135°
2026-04-27 20:49 62.45677 -8.51520 20669 ft 446 kts 135°
2026-04-27 20:49 62.43535 -8.46719 20089 ft 442 kts 135°
2026-04-27 20:49 62.41408 -8.41962 19512 ft 438 kts 135°
2026-04-27 20:49 62.39300 -8.37256 18952 ft 435 kts 135°
2026-04-27 20:50 62.37207 -8.32595 18369 ft 431 kts 135°
2026-04-27 20:50 62.35135 -8.27990 17778 ft 426 kts 135°
2026-04-27 20:50 62.33086 -8.23444 17178 ft 421 kts 135°
2026-04-27 20:50 62.31056 -8.18952 16608 ft 416 kts 135°
2026-04-27 20:51 62.29047 -8.14514 16021 ft 412 kts 135°
2026-04-27 20:51 62.27059 -8.10132 15465 ft 407 kts 135°
2026-04-27 20:51 62.25091 -8.05803 14905 ft 403 kts 135°
2026-04-27 20:51 62.23142 -8.01524 14340 ft 399 kts 135°
2026-04-27 20:52 62.21211 -7.97294 13759 ft 395 kts 135°
2026-04-27 20:52 62.19302 -7.93119 13172 ft 390 kts 135°
2026-04-27 20:52 62.17414 -7.88997 12577 ft 385 kts 136°
2026-04-27 20:52 62.15563 -7.84961 12265 ft 373 kts 136°
2026-04-27 20:53 62.13851 -7.80963 12213 ft 356 kts 126°
2026-04-27 20:53 62.12755 -7.76455 12226 ft 337 kts 114°
2026-04-27 20:53 62.11854 -7.71911 12236 ft 319 kts 112°
2026-04-27 20:53 62.11053 -7.67611 12238 ft 304 kts 111°
2026-04-27 20:54 62.09536 -7.59334 11637 ft 299 kts 111°
2026-04-27 20:54 62.08789 -7.55254 11281 ft 299 kts 111°
2026-04-27 20:54 62.08032 -7.51126 10891 ft 299 kts 112°
2026-04-27 20:55 62.07264 -7.46944 10533 ft 299 kts 112°
2026-04-27 20:55 62.06506 -7.42826 10172 ft 298 kts 112°
2026-04-27 20:55 62.05749 -7.38719 9779 ft 297 kts 112°
2026-04-27 20:55 62.05001 -7.34674 9388 ft 297 kts 112°
2026-04-27 20:56 62.04242 -7.30582 8991 ft 297 kts 112°
2026-04-27 20:56 62.03485 -7.26500 8602 ft 296 kts 113°
2026-04-27 20:56 62.02728 -7.22433 8205 ft 295 kts 112°
2026-04-27 20:56 62.01972 -7.18376 7832 ft 294 kts 112°
2026-04-27 20:57 62.01219 -7.14344 7464 ft 292 kts 112°
2026-04-27 20:57 62.00469 -7.10334 7099 ft 291 kts 112°
2026-04-27 20:57 61.99722 -7.06348 6722 ft 290 kts 112°
2026-04-27 20:57 61.98975 -7.02370 6300 ft 288 kts 113°
2026-04-27 20:58 61.98240 -6.98463 5886 ft 281 kts 113°
2026-04-27 20:58 61.97524 -6.94660 5465 ft 274 kts 113°
2026-04-27 20:58 61.96907 -6.90872 5033 ft 269 kts 100°
2026-04-27 20:58 61.97135 -6.87010 4608 ft 264 kts 64°
2026-04-27 20:59 61.98317 -6.84178 4181 ft 255 kts 28°
2026-04-27 20:59 61.99982 -6.83361 3738 ft 243 kts 351°
2026-04-27 20:59 62.01452 -6.84773 3316 ft 229 kts 313°
2026-04-27 20:59 62.02113 -6.87662 2939 ft 213 kts 272°
2026-04-27 21:00 62.01695 -6.90469 2831 ft 195 kts 235°
2026-04-27 21:00 62.00802 -6.92523 2703 ft 184 kts 222°
2026-04-27 21:00 61.99759 -6.93949 2572 ft 173 kts 209°
2026-04-27 21:00 61.98813 -6.95340 2453 ft 160 kts 234°
2026-04-27 21:01 61.98680 -6.97530 2325 ft 154 kts 288°
2026-04-27 21:01 61.99233 -6.99435 2225 ft 149 kts 300°
2026-04-27 21:01 61.99784 -7.01294 2110 ft 149 kts 295°
2026-04-27 21:01 62.00264 -7.03206 1993 ft 143 kts 292°
2026-04-27 21:02 62.00719 -7.05055 1915 ft 140 kts 292°
2026-04-27 21:02 62.01174 -7.06886 1816 ft 140 kts 292°
2026-04-27 21:02 62.01630 -7.08713 1721 ft 139 kts 292°
2026-04-27 21:02 62.02086 -7.10537 1571 ft 140 kts 292°
2026-04-27 21:03 62.02541 -7.12364 1453 ft 139 kts 292°
2026-04-27 21:03 62.02994 -7.14181 1395 ft 139 kts 292°
2026-04-27 21:03 62.03446 -7.15994 1341 ft 138 kts 292°
2026-04-27 21:03 62.03893 -7.17797 1297 ft 139 kts 292°
2026-04-27 21:04 62.04352 -7.19623 1116 ft 141 kts 290°
2026-04-27 21:04 62.04806 -7.21470 971 ft 140 kts 291°
2026-04-27 21:04 62.05264 -7.23303 882 ft 140 kts 293°
2026-04-27 21:04 62.05714 -7.25117 676 ft 139 kts 292°
2026-04-27 21:05 62.06443 -7.28226 1960 ft 309 kts 292°